Skip Page Navigation
NASA JPL Caltech
NASA Logo - Jet Propulsion Laboratory + View the NASA Portal
+ Center for Near-Earth Object Studies
JPL Home Earth Solar System Stars & Galaxies Technology
JPL Solar System Dynamics
BODIES ORBITS EPHEMERIDES TOOLS PHYSICAL DATA DISCOVERY FAQ SITE MAP
JPL Small-Body Database Browser
Search: [ help ]  
118527 (2000 EY33)
Classification: Main-belt Asteroid          SPK-ID: 2118527
Ephemeris | Orbit Diagram | Orbital Elements | Mission Design | Physical Parameters | Discovery Circumstances | Close-Approach Data ]

[ show orbit diagram ]
Orbital Elements at Epoch 2459000.5 (2020-May-31.0) TDB
Reference: JPL 22 (heliocentric ecliptic J2000)
 Element Value Uncertainty (1-sigma)   Units 
e .2277344951695586 4.8031e-08  
a 2.252652567084317 7.7406e-09 au
q 1.73964587192696 1.0848e-07 au
i 9.402663877161627 3.9467e-06 deg
node 103.473419845259 3.1178e-05 deg
peri 285.4358843306287 3.2675e-05 deg
M 118.6702387750931 1.1283e-05 deg
tp 2458593.420657902966
(2019-Apr-19.92065790)
3.745e-05 TDB
period 1234.92262818039
3.38
6.3651e-06
1.743e-08
d
yr
n .2915162389812597 1.5026e-09 deg/d
Q 2.765659262241674 9.5033e-09 au
  Orbit Determination Parameters
   # obs. used (total)      785  
   data-arc span      7923 days (21.69 yr)  
   first obs. used      1998-08-20  
   last obs. used      2020-04-29  
   planetary ephem.      DE431  
   SB-pert. ephem.      SB431-N16  
   condition code      0  
   norm. resid. RMS      .49619  
   source      ORB  
   producer      Otto Matic  
   solution date      2020-May-20 20:21:33  

Additional Information
 Earth MOID = .773535 au 
 Jupiter MOID = 2.72337 au 
 T_jup = 3.574 
[ show covariance matrix ]

Ephemeris | Orbit Diagram | Orbital Elements | Mission Design | Physical Parameters | Discovery Circumstances | Close-Approach Data ]

Physical Parameter Table
Parameter Symbol Value Units Sigma Reference Notes
absolute magnitude H 15.8   n/a MPO359568  
diameter diameter 4.386 km 0.140 urn:nasa:pds:neowise_diameters_albedos::2.0[mainbelt] (http://adsabs.harvard.edu/abs/2011ApJ...741...68M)  
geometric albedo albedo 0.058   0.011 urn:nasa:pds:neowise_diameters_albedos::2.0[mainbelt] (http://adsabs.harvard.edu/abs/2011ApJ...741...68M)  

118527 (2000 EY33)          Discovered 2000-Mar-05 by LINEAR at Socorro
Reference: 20051116/Numbers.arcLast Updated: 2005-11-21

[ show close-approach data ]
Alternate Designations
 2000 EY33 = 2003 AS57 
Ephemeris | Orbit Diagram | Orbital Elements | Mission Design | Physical Parameters | Discovery Circumstances | Close-Approach Data ]
ABOUT SSD CREDITS/AWARDS PRIVACY/COPYRIGHT GLOSSARY LINKS
FirstGov 2020-Oct-29 23:50 UT
(server date/time)  
NASA Home Page
Site Manager:   Ryan S. Park
Webmaster  Alan B. Chamberlin